Hill City, KS

10:54 AM CDT on April 23, 2017 (GMT -0500)
Hill City Municipal

Weather History for KHLC - June, 2014

Change the Weather History Date:

Thursday, June 5, 2014

  Actual Average Record
Temperature  
Mean Temperature 75 °F 69 °F  
Max Temperature 86 °F 82 °F 104 °F (1933)
Min Temperature 64 °F 57 °F 38 °F (1998)
Cooling Degree Days 9    
Growing Degree Days 24 (Base 50)    
Moisture  
Dew Point 62 °F    
Average Humidity 76    
Maximum Humidity 97    
Minimum Humidity 38    
Precipitation  
Precipitation 0.96 in 0.11 in 0.96 in (2014)
Month to date precipitation 0.99 0.54  
Year to date precipitation 5.93 9.04  
Sea Level Pressure  
Sea Level Pressure 29.84 in    
Wind  
Wind Speed 9 mph (NE)    
Max Wind Speed 25 mph    
Max Gust Speed 37 mph    
Visibility 8 miles    
Events Rain , Thunderstorm    
T = Trace of Precipitation, MM = Missing Value Source: NWS Daily Summary

Daily Weather History Graph

Daily Weather History Graph

Search for Another Location

Airport or City:

Trip Planner

Search our weather history database for the weather conditions in past years. The results will help you decide how hot, cold, wet, or windy it might be!

Date:

Astronomy

Jun. 05, 2014 Rise Set
Actual Time 6:13 AM CDT 9:02 PM CDT
Civil Twilight 5:41 AM CDT 9:34 PM CDT
Nautical Twilight 5:00 AM CDT 10:15 PM CDT
Astronomical Twilight 4:15 AM CDT 11:01 PM CDT
Moon 1:29 PM CDT (6/5) 1:33 AM CDT (6/5)
Length of Visible Light 15h 53m
Length of Day
14h 49m
Waxing Crescent, 49% of the Moon is Illuminated
Jun 5
Waxing Crescent
Jun 5
First Quarter
Jun 12
Full
Jun 19
Last Quarter
Jun 27
New

Hourly Weather History & Observations

Time (CDT) Temp. Heat Index Dew Point Humidity Pressure Visibility Wind Dir Wind Speed Gust Speed Precip Events Conditions
12:53 AM 66.9 °F - 61.0 °F 81% 29.78 in 10.0 mi ENE 6.9 mph - N/A   Partly Cloudy
1:53 AM 69.1 °F - 62.1 °F 78% 29.82 in 10.0 mi NNE 11.5 mph - N/A   Overcast
2:53 AM 68.0 °F - 62.1 °F 81% 29.72 in 10.0 mi North 12.7 mph 23.0 mph N/A   Scattered Clouds
3:08 AM 66.9 °F - 62.1 °F 84% 29.77 in 10.0 mi ENE 5.8 mph - N/A   Mostly Cloudy
3:33 AM 68.0 °F - 62.1 °F 81% 29.82 in 10.0 mi NE 13.8 mph - N/A Thunderstorm Overcast
3:53 AM 68.0 °F - 62.1 °F 81% 29.84 in 10.0 mi North 9.2 mph - N/A Thunderstorm Thunderstorm
4:03 AM 66.9 °F - 63.0 °F 87% 29.91 in 1.8 mi Variable 4.6 mph - 0.16 in Rain , Thunderstorm Heavy Thunderstorms and Rain
4:10 AM 66.0 °F - 63.0 °F 90% 29.95 in 1.0 mi Variable 5.8 mph - 0.35 in Rain , Thunderstorm Heavy Thunderstorms and Rain
4:21 AM 66.0 °F - 63.0 °F 90% 29.95 in 1.5 mi East 3.5 mph - 0.54 in Rain , Thunderstorm Heavy Thunderstorms and Rain
4:24 AM 66.0 °F - 64.0 °F 93% 29.95 in 1.2 mi Calm Calm - 0.62 in Rain , Thunderstorm Heavy Thunderstorms and Rain
4:38 AM 64.9 °F - 63.0 °F 93% 29.98 in 1.8 mi NW 8.1 mph - 0.86 in Rain , Thunderstorm Heavy Thunderstorms and Rain
4:43 AM 64.9 °F - 64.0 °F 97% 30.00 in 3.0 mi WNW 10.4 mph - 0.87 in Rain , Thunderstorm Thunderstorms and Rain
4:53 AM 64.9 °F - 64.0 °F 97% 29.96 in 3.0 mi WSW 5.8 mph - 0.90 in Rain , Thunderstorm Heavy Rain
5:15 AM 64.9 °F - 63.0 °F 93% 29.84 in 5.0 mi East 23.0 mph 28.8 mph 0.06 in Rain Light Rain
5:44 AM 64.9 °F - 63.0 °F 93% 29.78 in 9.0 mi East 25.3 mph 33.4 mph 0.06 in Rain Light Rain
5:53 AM 64.0 °F - 63.0 °F 96% 29.70 in 10.0 mi ESE 25.3 mph 36.8 mph 0.06 in   Mostly Cloudy
6:39 AM 64.9 °F - 62.1 °F 90% 29.80 in 10.0 mi NNW 11.5 mph 24.2 mph N/A   Partly Cloudy
6:53 AM 66.0 °F - 63.0 °F 90% 29.74 in 9.0 mi North 17.3 mph - N/A   Scattered Clouds
7:53 AM 66.0 °F - 63.0 °F 90% 29.77 in 7.0 mi North 10.4 mph - N/A   Clear
8:53 AM 66.9 °F - 63.0 °F 87% 29.76 in 10.0 mi NNE 10.4 mph - N/A   Clear
10:53 AM 73.9 °F - 61.0 °F 64% 29.86 in 10.0 mi Variable 4.6 mph - N/A   Partly Cloudy
11:53 AM 78.1 °F - 62.1 °F 58% 29.87 in 10.0 mi North 4.6 mph - N/A   Partly Cloudy
12:53 PM 79.0 °F - 62.1 °F 56% 29.86 in 10.0 mi NNE 8.1 mph - N/A   Mostly Cloudy
1:53 PM 82.0 °F 83.0 °F 62.1 °F 51% 29.85 in 10.0 mi Variable 5.8 mph - N/A   Partly Cloudy
2:53 PM 82.9 °F 83.2 °F 60.1 °F 46% 29.83 in 10.0 mi North 9.2 mph - N/A   Scattered Clouds
3:53 PM 84.0 °F 84.0 °F 60.1 °F 44% 29.83 in 10.0 mi NNE 11.5 mph 16.1 mph N/A   Scattered Clouds
4:53 PM 84.0 °F 83.8 °F 59.0 °F 43% 29.82 in 10.0 mi NNE 10.4 mph - N/A   Partly Cloudy
5:53 PM 84.9 °F 83.9 °F 57.0 °F 38% 29.80 in 10.0 mi Variable 3.5 mph - N/A   Partly Cloudy
6:53 PM 82.9 °F 82.8 °F 59.0 °F 44% 29.81 in 10.0 mi NE 6.9 mph - N/A   Partly Cloudy
7:53 PM 78.1 °F - 63.0 °F 60% 29.83 in 10.0 mi ENE 6.9 mph - N/A   Clear
8:53 PM 73.9 °F - 64.9 °F 73% 29.85 in 10.0 mi ENE 5.8 mph - N/A   Clear
9:53 PM 72.0 °F - 64.9 °F 78% 29.87 in 10.0 mi ENE 3.5 mph - N/A   Clear
10:53 PM 71.1 °F - 64.0 °F 78% 29.89 in 10.0 mi ENE 3.5 mph - N/A   Clear
11:53 PM 69.1 °F - 64.0 °F 84% 29.87 in 10.0 mi East 5.8 mph - N/A   Clear